OPS 4682 DEB, 1316

Orbit data source: Space-Track

OPS 4682 DEB, 1316 is space debris in LEO originally from a launch on Sat, 03 Apr 1965 UTC launched from the Air Force Western Test Range (AFWTR). Debris objects in space refer to the collection of defunct objects orbiting the Earth. Examples of debris include non-operational satellites, rocket bodies, and fragments generated from explosions, collisions, or faulty payload assembly.

Loading next visibility...
Identifier
1316, 1965-027C
Orbit
LEO
Last TLE update
1 day ago
Origin
Manufacturer
Unknown
Mission
Spacecraft
Bus & Motor
Unknown
Mass
7 kg wet, 7 kg dry
Launch date (UTC)
1965-04-03 (60 years ago)
Launch vehicle
Unknown
Launch site
Air Force Western Test Range (AFWTR)
Object type
Payload
Rocket body
Debris
Shape & HBR
Half Cyl, 2 m
Radar Cross Section
2.370 m², Medium (>0.1 m² and < 1m²)

Expand to show TLE details & history

TLE from 1 day ago
0 OPS 4682 DEB
1 01316U 65027C   25114.68846449  .00001269  00000-0  30477-2 0  9994
2 01316  90.2520  17.2377 0030734 259.1653 100.6022 13.21787940863703
Epoch: 2025-04-24T16:31Z
Definitive object data (Epoch: 2025-04-24T16:31:23.331Z)
Latitude
-0.00006°
Longitude
-83.56582°
Altitude
1,185.153 km
Speed
7.259 km/s
True Right ascension
01h 08m 57s
True Declination
0° 00' 00"
Sunlit
Object was in daylight at TLE epoch
Visualization TLE readout
Latitude
3.98767°
Longitude
96.47819°
Altitude
1,176.359 km
Speed
7.267 km/s
Apparent Right ascension
13h 31m 44s
Apparent Declination
-16° 02' 27"
Sunlit
Object is in full shadow
Visualization observer readout
Local Sidereal Time
02:06:35
Azimuth
20.115° NNE
Elevation
-64.947°
Doppler factor
1
Orbital elements
Apogee altitude
1,198.203 km
Perigee altitude
1,151.776 km
Semi-major axis
7,553.127 km
Eccentricity
0.0030734
Inclination
90.252°
RAAN
17.2377°
Arg. of periapsis
259.1653°
True anomaly
100.94813°
Mean anomaly
100.6022°
Eccentric anomaly
100.77519°
Mean motion
3.30638 °/min
BSTAR
0.0030477
Orbital period
108.88 mins
Loading maneuver chart data...
Loading SW <> Apogee altitude chart data...
Loading historical data...
Loading historical data...
Loading historical data...
Loading historical data...
Loading historical data...
Loading historical data...
Loading historical data...

OPS 4682 DEB Visibility forecast

Observer location: undefined°, undefined°

Span
Click to sort rows by Start time (UTC) header in descending order
Start Az.
Max El. time (UTC)
Max El. Az.
Max El.
End time (UTC)
End Az.
13 mins2025-04-26 05:27:55.222Z8.971° NNE2025-04-26 05:33:55.222Z79.229° E42.83°2025-04-26 05:40:55.222Z173.145° S
8 mins2025-04-26 07:18:55.222Z320.581° NNW2025-04-26 07:21:55.222Z290.508° WNW19.78°2025-04-26 07:26:55.222Z244.648° WSW
5 mins2025-04-26 15:56:55.222Z87.208° E2025-04-26 15:58:55.222Z69.346° E14.259°2025-04-26 16:01:55.222Z43.054° NE
13 mins2025-04-26 17:40:55.222Z173.942° S2025-04-26 17:46:55.222Z22.451° NNE44.843°2025-04-26 17:53:55.222Z358.287° N
|